Tracking 19792 objects as of 16-Jul-2019
HD Live streaming from Space Station
objects crossing your sky now

FENGYUN 1C DEB

Track FENGYUN 1C DEB now!
10-day predictions


NORAD ID: 35109
Int'l Code: 1999-025DKM
Perigee: 725.8 km
Apogee: 953.0 km
Inclination: 98.6 °
Period: 101.6 minutes
Semi major axis: 7210 km
RCS: 0.0098 m2 (small)
Launch date: May 10, 1999
Source: People's Republic of China (PRC)
Launch site: Taiyaun Space Center, China (TSC)

Note: This is SATELLITE DEBRIS
aabbcc
Your satellite tracking list
Your tracking list is empty




NASA's NSSDC Master Catalog

Two Line Element Set (TLE):
1 35109U 99025DKM 19195.02471545 +.00000040 +00000-0 +36375-4 0  9998
2 35109 098.6453 223.0464 0157587 319.7632 039.1963 14.17961605309250
Source of the keplerian elements: AFSPC